Regional Weather Roundup
Issued by NWS

Home | Current Version | Previous Version | Graphics & Text | Print | Product List | Glossary On
Versions: 1 2 3 4 5 6 7 8 9 10 11 12 13 14 15 16 17 18 19 20 21 22 23 24 25 26 27 28 29 30 31 32 33 34 35 36 37 38 39 40 41 42 43 44 45 46 47 48 49 50
356
ASUS43 KLSX 261207
RWRMO

WEATHER SUMMARY FOR MISSOURI
NATIONAL WEATHER SERVICE SPRINGFIELD MO
600 AM CST SUN FEB 26 2017

NOTE: "FAIR" INDICATES FEW OR NO CLOUDS BELOW 12,000 FEET WITH NO
       SIGNIFICANT WEATHER AND/OR OBSTRUCTIONS TO VISIBILITY.
       CURRENT SKY AND/OR WEATHER CONDITIONS ARE NOT AVAILABLE FOR
       CHILLICOTHE AND FARMINGTON.

MOZ001>031-035>038-043-044-053-054-261300-
...NORTHERN AND WESTERN MISSOURI...

CITY           SKY/WX    TMP DP  RH WIND       PRES   REMARKS
KANSAS CTY INT CLOUDY    35  16  45 SW10      30.00R WCI  27
6HR MIN TEMP:  31; 6HR MAX TEMP:  35;

KANSAS C DTWN  CLOUDY    39  14  36 SW13      30.01R
6HR MIN TEMP:  35; 6HR MAX TEMP:  39;

LEE`S SUMMIT   CLOUDY    35  15  44 SW13      30.01R WCI  26
6HR MIN TEMP:  33; 6HR MAX TEMP:  35;

ST JOSEPH      CLOUDY    27  20  75 S3        29.99R
6HR MIN TEMP:  27; 6HR MAX TEMP:  34;

CHILLICOTHE      N/A     31  16  54 S7        30.00S WCI  24
6HR MIN TEMP:  27; 6HR MAX TEMP:  32;

KIRKSVILLE     CLOUDY    32  14  47 SW12      29.99S WCI  23
6HR MIN TEMP:  22; 6HR MAX TEMP:  33;


$$
MOZ066>068-077>081-088>096-101>105-261300-
...SOUTHWEST MISSOURI...

CITY           SKY/WX    TMP DP  RH WIND       PRES   REMARKS
SPRINGFIELD    CLOUDY    34  17  50 S13       30.03F WCI  25
6HR MIN TEMP:  25; 6HR MAX TEMP:  34;

JOPLIN         CLOUDY    36  20  52 E6        30.02F
6HR MIN TEMP:  31; 6HR MAX TEMP:  36;

BRANSON        CLOUDY    32  16  51 SE6       30.06R WCI  26

$$
MOZ032>034-039>042-045>050-055>058-069>072-261300-
...CENTRAL MISSOURI...

CITY           SKY/WX    TMP DP  RH WIND       PRES   REMARKS
COLUMBIA       CLOUDY    30  15  53 S10       30.04R WCI  21
6HR MIN TEMP:  25; 6HR MAX TEMP:  31;

JEFFERSON CITY CLOUDY    31  13  47 SE3       30.07R
6HR MIN TEMP:  22; 6HR MAX TEMP:  31;

ROLLA          PTCLDY    31  12  45 S12       30.05R WCI  22
6HR MIN TEMP:  23; 6HR MAX TEMP:  31;

SEDALIA        CLOUDY    37  14  38 S13       30.04S WCI  29
6HR MIN TEMP:  30; 6HR MAX TEMP:  37;

WHITEMAN AFB   CLOUDY    33  19  55 S10       30.02R WCI  24
WARRENSBURG    CLOUDY    34  19  55 S9        30.03R WCI  26
OSAGE BEACH    CLOUDY    30  16  56 S7        30.07R WCI  23

$$
MOZ051-052-059>065-261300-
...EAST CENTRAL MISSOURI...

CITY           SKY/WX    TMP DP  RH WIND       PRES   REMARKS
ST LOUIS INTL  MOCLDY    32  13  45 S12       30.10R WCI  23
6HR MIN TEMP:  28; 6HR MAX TEMP:  33;

SPIRIT OF STL  PTCLDY    31  13  47 S9        30.10R WCI  23
6HR MIN TEMP:  19; 6HR MAX TEMP:  31;

ST CHARLES     CLEAR     25  17  72 E5        30.10R WCI  19
6HR MIN TEMP:  20; 6HR MAX TEMP:  26;


$$
MOZ072>076-082>087-097>100-106>115-261300-
...SOUTH CENTRAL AND SOUTHEAST MISSOURI...

CITY           SKY/WX    TMP DP  RH WIND       PRES   REMARKS
CAPE GIRARDEAU CLEAR     25  17  72 E3        30.17S
6HR MIN TEMP:  22; 6HR MAX TEMP:  28;

FARMINGTON     CLEAR     22  14  71 CALM      30.12S
6HR MIN TEMP:  20; 6HR MAX TEMP:  25;

POPLAR BLUFF   CLEAR     26  23  88 CALM      30.15S
6HR MIN TEMP:  25; 6HR MAX TEMP:  30;

WEST PLAINS    PTCLDY    30  11  45 SE5       30.10R WCI  25
6HR MIN TEMP:  25; 6HR MAX TEMP:  32;


$$



USA.gov is the U.S. government's official web portal to all federal, state and local government web resources and services.